Location: Klein M�hlingen
(51.9472°N, 11.7453°E)
Time: 13:50:25
(UTC+00:00)

Cosmos 1461 - Visible Passes

Search period start: 06 August 2020 00:00
Search period end: 16 August 2020 00:00
Orbit: 503 x 663 km, 65.0° (Epoch: 05 August)

Date Brightness Start Highest point End Pass type
(mag) Time Alt. Az. Time Alt. Az. Time Alt. Az.
06 Aug 4.8 01:41:17 12° SSE 01:44:18 24° ESE 01:47:56 10° ENE visible
07 Aug 4.2 01:47:03 17° S 01:49:52 35° ESE 01:54:01 10° NE visible
08 Aug 3.5 01:52:47 21° SSW 01:55:30 51° SE 01:59:58 10° NE visible
09 Aug 5.3 00:22:05 12° ESE 00:22:56 13° ESE 00:24:57 10° E visible
09 Aug 3.1 01:58:28 23° SSW 02:01:12 76° SE 02:05:49 10° NE visible
10 Aug 4.8 00:27:44 19° SE 00:28:24 19° ESE 00:31:37 10° ENE visible
10 Aug 3.1 02:04:07 22° SW 02:06:58 77° NW 02:11:37 10° NE visible
11 Aug 4.2 00:33:21 28° SE 00:33:55 28° ESE 00:37:50 10° ENE visible
11 Aug 3.5 02:09:44 19° WSW 02:12:48 55° NW 02:17:23 10° NE visible
12 Aug 3.6 00:38:56 40° SE 00:39:31 42° ESE 00:43:51 10° NE visible
12 Aug 4.0 02:15:18 15° WSW 02:18:41 41° NW 02:23:07 10° NE visible
13 Aug 3.1 00:44:29 54° S 00:45:11 62° SE 00:49:45 10° NE visible
13 Aug 4.4 02:20:51 11° W 02:24:38 32° NNW 02:28:51 10° NNE visible
13 Aug 5.2 23:13:38 15° E 23:13:38 15° E 23:15:12 10° ENE visible
14 Aug 3.0 00:50:00 57° SW 00:50:55 89° ESE 00:55:33 10° NE visible
14 Aug 4.8 02:26:47 10° W 02:30:37 26° NNW 02:34:35 10° NNE visible
14 Aug 4.8 23:19:07 21° E 23:19:07 21° E 23:21:36 10° ENE visible
15 Aug 3.3 00:55:29 45° WSW 00:56:42 65° NW 01:01:20 10° NE visible
15 Aug 5.1 02:33:03 10° WNW 02:36:39 22° NNW 02:40:21 10° NNE visible
15 Aug 4.3 23:24:34 30° E 23:24:34 30° E 23:27:41 10° NE visible
